Find ASTROSAT

NORAD ID: 40930 Int'l Des: 2015-052 Owner: ISRO Country: IN operational
LEOCIRCULAR

Live-Position

3D-Globus wird geladen...

Über ASTROSAT

Beschreibung wird geladen...

Nächste Überflüge

Passes for default location (London). Set your location on the main map for personalized predictions.

Höhenverlauf

Loading altitude history...

Zweizeiliger Elementsatz

1 40930U 15052A 26118.24030020 .00001821 00000-0 14027-3 0 9997
2 40930 5.9957 154.8367 0007584 39.2274 320.8403 14.82417667572402
Epoch: 28. Apr. 2026 • Age: 45 hours

Aktueller Status

Höhe 613.5 km
Geschwindigkeit 7.56 km/s
Subsatellitenpunkt 3.70°N, 86.26°W
Startdatum 28. Sept. 2015
Alter 10.5 years
Typ other

Technische Details

Klassifizierung Payload
Masse 1513.00 kg
Trockenmasse 1470.00 kg
Gesamtmasse 1513.00 kg
Länge 2.00 m
Durchmesser 1.30 m
Spannweite 7.00 m
Form Box+ 2 pan
Hersteller ISAC
Bus-Typ Astrosat
Phasenstatus In Orbit
Besitzer/Staat ISRO/IN

Most Searched